Location: Lecco
(45.8566°N, 9.3977°E)
Time: 08:31:02
(UTC+02:00)

Altair - Pass Details

Date: 17 August 2020
Orbit: 1501 x 1682 km, 47.2° (Epoch: 25 September)

Event Time Altitude Azimuth Distance (km) Brightness Sun altitude
Rises 10:24:47 0° 286° (WNW) 4,669 9.6 39.8°
Reaches altitude 10° 10:29:50 10° 263° (W) 3,662 9.2 40.6°
Maximum altitude 10:33:54 14° 236° (SW) 3,353 9.2 41.2°
Drops below altitude 10° 10:37:59 10° 209° (SSW) 3,643 9.6 41.8°
Sets 10:43:02 0° 186° (S) 4,627 10.3 42.6°
